Location: Catstown
(52.4386°N, 7.2633°W)
Time: 12:50:00
(UTC+00:00)

NOSS 3-4 (A) - Pass Details

Date: 18 September 2020
Orbit: 886 x 1326 km, 63.4° (Epoch: 22 October)

Event Time Altitude Azimuth Distance (km) Brightness Sun altitude
Exits shadow 22:41:29 44° 41° (NE) 1,311 4.2 -32.1°
Drops below altitude 10° 22:45:51 10° 46° (NE) 2,803 6.0 -32.4°
Sets 22:48:35 0° 48° (NE) 3,822 6.8 -32.6°
